This demonstration page uses our WeatherBlox Daily Observations layout. Learn more.

Left ArrowRight Arrow

36.19886, -115.1175

Hourly Observations for August 4, 2017

Temp ( °F °C ) Dew Point ( °F °C ) Humidity (%) Winds ( mph kmh ) Pressure ( in mb ) Visibility ( mi km ) Precip ( " mm )
12:53 am 00:53 Mostly Clear 82 27.8 64 17.8 55 55 NNE 14 22 29.96 1014 10 16 N/A
1:53 am 01:53 Clear 86 30 59 15 40 40 NNW 5 7 29.92 1013 10 16 N/A
2:53 am 02:53 Clear 85 29.4 59 15 42 42 NW 3 6 29.91 1013 10 16 N/A
3:53 am 03:53 Clear 85 29.4 59 15 42 42 NNE 3 6 29.91 1013 10 16 N/A
4:53 am 04:53 Clear 83 28.3 63 17.2 51 51 SE 6 9 29.92 1013 10 16 N/A
5:53 am 05:53 Mostly Sunny 82 27.8 63 17.2 53 53 SE 7 11 29.93 1014 10 16 N/A
6:53 am 06:53 Mostly Sunny 83 28.3 63 17.2 51 51 E 6 9 29.94 1014 10 16 N/A
7:53 am 07:53 Mostly Sunny 85 29.4 62 16.7 46 46 E 8 13 29.96 1015 10 16 N/A
8:53 am 08:53 Mostly Cloudy 87 30.6 62 16.7 43 43 E 6 9 29.96 1015 10 16 N/A
9:53 am 09:53 Mostly Cloudy 88 31.1 62 16.7 42 42 SE 5 7 29.96 1015 10 16 N/A
10:53 am 10:53 Cloudy 89 31.7 62 16.7 41 41 VRB 3 6 29.96 1015 10 16 N/A
11:53 am 11:53 Sunny 89 31.7 62 16.7 41 41 N N/A 29.96 1015 10 16 N/A
12:53 pm 12:53 Sunny 88 31.1 64 17.8 45 45 N 18 30 29.95 1014 10 16 N/A
1:53 pm 13:53 Mostly Sunny 88 31.1 65 18.3 46 46 NNW 16 26 29.93 1014 10 16 N/A
2:05 pm 14:05 Partly Cloudy with Nearby Thunderstorms 87 30.6 63 17.2 45 45 N 22 35 29.80 1009 10 16 N/A
2:39 pm 14:39 Mostly Cloudy 83 28.3 60 15.6 46 46 NNW 22 35 29.80 1009 10 16 N/A
2:53 pm 14:53 Cloudy 84 28.9 58 14.4 41 41 NW 21 33 29.91 1013 10 16 N/A
3:53 pm 15:53 Partly Cloudy 80 26.7 65 18.3 60 60 N 7 11 29.91 1013 10 16 N/A
4:53 pm 16:53 Sunny 83 28.3 63 17.2 51 51 N 16 26 29.87 1012 10 16 N/A
5:53 pm 17:53 Sunny 84 28.9 62 16.7 48 48 NNW 12 19 29.84 1011 10 16 N/A
6:53 pm 18:53 Sunny 85 29.4 62 16.7 46 46 NNW 12 19 29.83 1010 10 16 N/A
7:53 pm 19:53 Clear 85 29.4 61 16.1 45 45 NNW 9 15 29.85 1011 10 16 N/A
8:53 pm 20:53 Clear 84 28.9 61 16.1 46 46 N 7 11 29.87 1011 10 16 N/A
9:53 pm 21:53 Partly Cloudy 85 29.4 60 15.6 43 43 N 7 11 29.87 1011 10 16 N/A
10:53 pm 22:53 Mostly Cloudy with Light Rain 83 28.3 64 17.8 53 53 NNW 10 17 29.87 1012 10 16 N/A
11:05 pm 23:05 Cloudy with Nearby Thunderstorms 82 27.8 66 18.9 58 58 NNE 8 13 29.77 1008 7 11 N/A
11:31 pm 23:31 Cloudy 82 27.8 66 18.9 58 58 NNW 10 17 29.83 1010 10 16 N/A
11:39 pm 23:39 Cloudy with Nearby Thunderstorms 82 27.8 66 18.9 58 58 W 13 20 29.83 1010 10 16 N/A
11:53 pm 23:53 Cloudy with Nearby Thunderstorms 77 25 65 18.3 66 66 NW 23 37 29.91 1013 6 10 N/A

Powered by AerisWeather